TimeEST,TemperatureF,Dew PointF,Humidity,Sea Level PressureIn,VisibilityMPH,Wind Direction,Wind SpeedMPH,Gust SpeedMPH,PrecipitationIn,Events,Conditions,WindDirDegrees,DateUTC
12:52 AM,32.0,23.0,69,30.36,10.0,East,17.3,-,N/A,,Overcast,100,2013-02-08 05:52:00
1:52 AM,30.2,21.2,69,30.35,10.0,ENE,18.4,-,N/A,,Overcast,70,2013-02-08 06:52:00
2:52 AM,30.9,21.0,67,30.32,10.0,ENE,13.8,-,N/A,,Overcast,70,2013-02-08 07:52:00
3:52 AM,30.0,21.9,72,30.28,10.0,ENE,15.0,-,N/A,,Overcast,60,2013-02-08 08:52:00
4:03 AM,30.2,21.2,69,30.27,10.0,ENE,12.7,21.9,N/A,,Overcast,60,2013-02-08 09:03:00
4:52 AM,30.9,24.1,76,30.25,10.0,ENE,15.0,-,N/A,,Overcast,60,2013-02-08 09:52:00
5:32 AM,30.2,24.8,80,30.23,10.0,NE,12.7,-,N/A,,Overcast,50,2013-02-08 10:32:00
5:52 AM,30.9,24.1,76,30.22,10.0,NE,12.7,-,N/A,,Overcast,40,2013-02-08 10:52:00
6:03 AM,30.2,24.8,80,30.22,10.0,NE,11.5,-,N/A,,Overcast,40,2013-02-08 11:03:00
6:52 AM,30.9,24.1,76,30.19,10.0,NE,16.1,21.9,N/A,,Overcast,40,2013-02-08 11:52:00
7:28 AM,32.0,28.4,87,30.19,1.8,ENE,16.1,-,0.00,Snow,Light Snow,60,2013-02-08 12:28:00
7:37 AM,32.0,28.4,87,30.18,0.5,ENE,15.0,-,0.01,Fog-Snow,Snow,60,2013-02-08 12:37:00
7:42 AM,32.0,28.4,87,30.18,0.5,ENE,16.1,23.0,0.01,Fog-Snow,Snow,60,2013-02-08 12:42:00
7:52 AM,30.9,28.9,92,30.18,0.2,ENE,13.8,-,0.03,Fog-Snow,Heavy Snow,60,2013-02-08 12:52:00
8:20 AM,30.2,30.2,100,30.17,0.8,ENE,11.5,-,0.04,Snow,Light Snow,60,2013-02-08 13:20:00
8:52 AM,30.9,30.0,96,30.15,0.8,NE,13.8,-,0.07,Snow,Light Snow,50,2013-02-08 13:52:00
9:21 AM,32.0,30.2,93,30.14,0.5,NE,13.8,-,0.04,Fog-Snow,Snow,50,2013-02-08 14:21:00
9:52 AM,32.0,30.9,96,30.11,0.5,NE,16.1,-,0.08,Fog-Snow,Snow,50,2013-02-08 14:52:00
10:05 AM,32.0,30.2,93,30.10,0.8,NE,15.0,-,0.01,Snow,Light Snow,50,2013-02-08 15:05:00
10:47 AM,32.0,30.2,93,30.06,0.5,ENE,17.3,25.3,0.05,Fog-Snow,Snow,60,2013-02-08 15:47:00
10:52 AM,32.0,30.9,96,30.06,0.5,NE,17.3,24.2,0.06,Fog-Snow,Snow,50,2013-02-08 15:52:00
11:03 AM,32.0,30.2,93,30.05,0.8,NE,16.1,24.2,0.01,Snow,Light Snow,50,2013-02-08 16:03:00
11:08 AM,32.0,30.2,93,30.04,1.0,NE,15.0,-,0.01,Snow,Light Snow,50,2013-02-08 16:08:00
11:15 AM,32.0,30.2,93,30.03,1.0,NE,17.3,-,0.02,Snow,Light Snow,50,2013-02-08 16:15:00
11:52 AM,32.0,30.9,96,30.00,1.0,NE,16.1,-,0.04,Snow,Light Snow,50,2013-02-08 16:52:00
11:58 AM,32.0,30.2,93,29.99,0.8,NE,16.1,-,0.01,Snow,Light Snow,50,2013-02-08 16:58:00
12:27 PM,32.0,30.2,93,29.96,0.5,NE,17.3,23.0,0.04,Fog-Snow,Snow,50,2013-02-08 17:27:00
12:39 PM,32.0,30.2,93,29.95,0.5,NE,16.1,25.3,0.05,Fog-Snow,Snow,50,2013-02-08 17:39:00
12:52 PM,32.0,30.0,92,29.94,0.5,NE,18.4,-,0.07,Fog-Snow,Snow,40,2013-02-08 17:52:00
1:32 PM,32.0,30.2,93,29.88,0.5,NE,19.6,25.3,0.04,Fog-Snow,Snow,40,2013-02-08 18:32:00
1:52 PM,32.0,30.0,92,29.87,0.5,NE,18.4,26.5,0.06,Fog-Snow,Snow,40,2013-02-08 18:52:00
2:52 PM,32.0,30.9,96,29.80,0.5,NE,19.6,28.8,0.09,Fog-Snow,Snow,40,2013-02-08 19:52:00
3:27 PM,32.0,30.2,93,29.76,0.5,NE,18.4,32.2,0.04,Fog-Snow,Snow,40,2013-02-08 20:27:00
3:52 PM,33.1,30.9,92,29.75,0.5,NE,21.9,31.1,0.07,Fog-Snow,Snow,40,2013-02-08 20:52:00
4:52 PM,32.0,32.0,100,29.71,0.2,NNE,19.6,28.8,0.12,Fog-Snow,Heavy Snow,30,2013-02-08 21:52:00
5:18 PM,32.0,30.2,93,29.70,0.5,NNE,17.3,26.5,0.05,Fog-Snow,Snow,30,2013-02-08 22:18:00
5:52 PM,30.9,30.0,96,29.69,0.5,NNE,19.6,28.8,0.16,Fog-Snow,Snow,30,2013-02-08 22:52:00
6:12 PM,30.2,28.4,93,29.67,0.5,NNE,21.9,29.9,0.04,Fog-Snow,Snow,30,2013-02-08 23:12:00
6:43 PM,30.2,28.4,93,29.65,0.8,NNE,24.2,31.1,0.10,Snow,Light Snow,20,2013-02-08 23:43:00
6:52 PM,30.0,28.9,96,29.63,0.5,North,24.2,33.4,0.11,Fog-Snow,Snow,10,2013-02-08 23:52:00
7:17 PM,28.4,28.4,100,29.62,0.8,NNE,19.6,32.2,0.03,Snow,Light Snow,20,2013-02-09 00:17:00
7:26 PM,28.4,28.4,100,29.62,0.5,NNE,19.6,31.1,0.05,Fog-Snow,Snow,20,2013-02-09 00:26:00
7:52 PM,28.0,28.0,100,29.60,0.5,NNE,20.7,27.6,0.08,Fog-Snow,Snow,20,2013-02-09 00:52:00
8:11 PM,28.4,28.4,100,29.58,0.8,North,21.9,35.7,0.00,Snow,Light Snow,10,2013-02-09 01:11:00
8:18 PM,28.4,28.4,100,29.58,1.2,North,20.7,33.4,0.00,,Overcast,10,2013-02-09 01:18:00
8:28 PM,28.4,28.4,100,29.58,2.0,NNE,16.1,28.8,0.00,Snow,Light Snow,20,2013-02-09 01:28:00
8:52 PM,28.0,28.0,100,29.57,1.2,North,20.7,26.5,0.02,Snow,Light Snow,10,2013-02-09 01:52:00
9:49 PM,26.6,26.6,100,29.59,0.8,North,16.1,29.9,0.00,,Overcast,10,2013-02-09 02:49:00
9:52 PM,26.1,26.1,100,29.60,0.8,North,17.3,27.6,0.00,,Overcast,10,2013-02-09 02:52:00
9:59 PM,26.6,24.8,93,29.60,0.8,North,21.9,26.5,N/A,,Mist,10,2013-02-09 02:59:00
10:10 PM,26.6,24.8,93,29.61,0.5,North,16.1,26.5,N/A,Fog,Light Freezing Fog,360,2013-02-09 03:10:00
10:21 PM,24.8,24.8,100,29.61,0.2,North,17.3,32.2,N/A,Fog,Light Freezing Fog,360,2013-02-09 03:21:00
10:35 PM,24.8,24.8,100,29.62,0.2,North,24.2,35.7,0.01,Fog,Light Freezing Fog,10,2013-02-09 03:35:00
10:52 PM,25.0,24.1,96,29.64,0.2,North,23.0,31.1,0.06,Fog,Light Freezing Fog,360,2013-02-09 03:52:00
11:52 PM,25.0,24.1,96,29.68,0.2,NNW,25.3,39.1,0.54,Fog,Light Freezing Fog,340,2013-02-09 04:52:00